Location: Austin
(30.3000°N, 97.7500°W)
Time: 12:27:17
(UTC-06:00)

Cosmos 1023 Rocket - Pass Details

Date: 04 November 2025
Orbit: 732 x 766 km, 74.1° (Epoch: 07 November)

Event Time Altitude Azimuth Distance (km) Brightness Sun altitude
Rises 19:32:50 0° 198° (SSW) 3,213 8.0 -24.5°
Reaches altitude 10° 19:35:12 10° 199° (SSW) 2,287 7.2 -25.0°
Maximum altitude 19:40:23 78° 286° (WNW) 778 4.5 -26.1°
Enters shadow 19:41:39 52° 0° (N) 938 4.8 -26.4°
